Date String (YYYY-MM-DD hh:mm:ss) UTC,Instrument flags,Ambient pressure (hPa),Sample flow (lpm),Bypass flow (lpm),Sample temperature (°C),Ambient temperature (°C),ASC tube jacket temperature (°C),LED temperature (°C),Box temperature (°C),Sample RH (%),Span deviation,Mass concentration (μg/m³),Mass concentration (μg/m³),Mass concentration (μg/m³)
DateTimeUTC,F1_M11,P_M11,Q1_M11,Q2_M11,T1_M11,T2_M11,T3_M11,T4_M11,T5_M11,U1_M11,ZSPAN_M11,X0_M11,X2_M11,X1_M11
2021-09-10 04:00:00,,0830.1,4.99,0.00,29.0,26.4,00.0,38.2,30.6,11.7,0001.5,0034.09,0021.49,0019.84
2021-09-10 04:01:00,,0830.1,5.01,0.00,29.0,26.8,00.0,38.2,30.7,11.7,0001.1,0034.48,0021.50,0019.86
2021-09-10 04:02:00,,0830.1,4.99,0.00,29.1,27.2,00.0,38.2,30.8,11.6,0000.8,0034.02,0021.53,0019.86
2021-09-10 04:03:00,,0830.1,5.00,0.00,29.1,27.5,00.0,38.2,30.8,11.6,0000.1,0033.93,0021.57,0019.87
2021-09-10 04:04:00,,0830.0,5.00,0.00,29.1,27.7,00.0,38.2,30.9,11.6,0000.5,0033.71,0021.54,0019.88
2021-09-10 04:05:00,,0830.1,5.00,0.00,29.2,27.9,00.0,38.2,31.0,11.5,0000.2,0034.29,0021.54,0019.89
2021-09-10 04:06:00,,0830.1,5.01,0.00,29.2,28.1,00.0,38.2,31.0,11.5,0000.2,0034.06,0021.53,0019.91
2021-09-10 04:07:00,,0830.1,4.99,0.00,29.3,28.3,00.0,38.2,31.1,11.4,-000.0,0033.98,0021.49,0019.89
2021-09-10 04:08:00,,0830.1,5.00,0.00,29.3,28.4,00.0,38.2,31.1,11.4,-000.7,0033.31,0021.41,0019.88
2021-09-10 04:09:00,,0830.1,5.01,0.00,29.3,28.5,00.0,38.3,31.2,11.3,-000.6,0032.50,0021.35,0019.87
2021-09-10 04:10:00,,0830.1,5.00,0.00,29.4,28.6,00.0,38.3,31.3,11.4,-001.0,0032.86,0021.35,0019.87
2021-09-10 04:11:00,,0830.1,5.00,0.00,29.4,28.6,00.0,38.3,31.3,11.3,-001.1,0033.56,0021.30,0019.89
2021-09-10 04:12:00,,0830.2,5.01,0.00,29.5,28.7,00.0,38.4,31.3,11.3,-001.4,0033.13,0021.30,0019.90
2021-09-10 04:13:00,,0830.1,5.00,0.00,29.5,28.7,00.0,38.4,31.4,11.3,-001.8,0033.22,0021.34,0019.92
2021-09-10 04:14:00,,0830.1,5.01,0.00,29.5,27.3,00.0,38.4,31.0,11.2,-001.8,0033.00,0021.34,0019.94
2021-09-10 04:15:00,,0830.1,4.99,0.00,29.3,26.3,00.0,38.4,30.7,11.3,-001.9,0032.67,0021.36,0019.93
2021-09-10 04:16:00,,0830.1,5.00,0.00,29.3,26.4,00.0,38.4,30.8,11.3,-001.8,0032.32,0021.32,0019.91
2021-09-10 04:17:00,,0830.1,5.00,0.00,29.2,26.8,00.0,38.3,30.8,11.3,-001.9,0032.70,0021.31,0019.90
2021-09-10 04:18:00,,0830.1,5.01,0.00,29.2,27.2,00.0,38.3,30.9,11.4,-001.4,0032.85,0021.37,0019.92
2021-09-10 04:19:00,,0830.1,4.99,0.00,29.2,27.5,00.0,38.3,31.0,11.3,-001.1,0033.00,0021.42,0019.94
2021-09-10 04:20:00,,0830.1,5.02,0.00,29.3,27.8,00.0,38.3,31.0,11.2,-001.0,0033.23,0021.43,0019.93
2021-09-10 04:21:00,,0830.1,4.99,0.00,29.3,28.0,00.0,38.3,31.1,11.2,-000.9,0033.22,0021.41,0019.92
2021-09-10 04:22:00,,0830.1,4.99,0.00,29.3,28.2,00.0,38.3,31.2,11.1,-000.8,0032.45,0021.44,0019.93
2021-09-10 04:23:00,,0830.1,5.01,0.00,29.4,28.3,00.0,38.4,31.2,11.1,-000.4,0031.77,0021.46,0019.93
2021-09-10 04:24:00,,0830.1,5.00,0.00,29.4,28.5,00.0,38.4,31.3,11.0,-000.1,0031.75,0021.47,0019.97
2021-09-10 04:25:00,,0830.2,5.00,0.00,29.5,28.6,00.0,38.4,31.3,11.0,-000.2,0032.03,0021.45,0019.97
2021-09-10 04:26:00,,0830.1,5.01,0.00,29.5,28.7,00.0,38.4,31.4,10.9,-000.3,0033.14,0021.49,0020.00
2021-09-10 04:27:00,,0830.1,4.99,0.00,29.5,27.9,00.0,38.5,31.2,10.8,-000.0,0033.82,0021.57,0020.04
2021-09-10 04:28:00,,0830.1,5.00,0.00,29.4,26.3,00.0,38.4,30.7,11.0,0000.4,0034.02,0021.63,0020.09
2021-09-10 04:29:00,,0830.0,5.01,0.00,29.3,26.3,00.0,38.4,30.7,11.0,0000.7,0034.98,0021.58,0020.11
2021-09-10 04:30:00,,0830.1,5.00,0.00,29.3,26.6,00.0,38.4,30.8,11.0,0000.9,0034.80,0021.50,0020.08
2021-09-10 04:31:00,,0830.1,4.99,0.00,29.2,27.0,00.0,38.4,30.9,11.0,0000.5,0034.78,0021.46,0020.09
2021-09-10 04:32:00,,0830.1,5.01,0.00,29.3,27.4,00.0,38.4,31.0,11.0,0000.2,0035.15,0021.53,0020.12
2021-09-10 04:33:00,,0830.1,4.99,0.00,29.3,27.7,00.0,38.4,31.0,10.9,-000.3,0036.15,0021.57,0020.13
2021-09-10 04:34:00,,0830.1,5.00,0.00,29.3,27.9,00.0,38.4,31.1,10.9,-000.9,0036.85,0021.63,0020.15
2021-09-10 04:35:00,,0830.1,5.01,0.00,29.4,28.1,00.0,38.4,31.1,10.8,-000.6,0037.21,0021.58,0020.10
2021-09-10 04:36:00,,0830.1,4.99,0.00,29.4,28.3,00.0,38.4,31.2,10.8,0000.1,0036.88,0021.59,0020.10
2021-09-10 04:37:00,,0830.1,4.99,0.00,29.4,28.4,00.0,38.4,31.3,10.8,-000.3,0035.88,0021.57,0020.09
2021-09-10 04:38:00,,0830.1,4.99,0.00,29.5,28.5,00.0,38.4,31.3,10.7,-001.2,0035.17,0021.54,0020.06
2021-09-10 04:39:00,,0830.1,5.00,0.00,29.5,28.6,00.0,38.5,31.3,10.7,-001.6,0035.57,0021.53,0020.06
2021-09-10 04:40:00,,0830.1,5.02,0.00,29.6,28.7,00.0,38.5,31.4,10.6,-002.0,0034.93,0021.56,0020.05
2021-09-10 04:41:00,,0830.1,4.99,0.00,29.6,28.5,00.0,38.5,31.3,10.7,-002.2,0034.80,0021.57,0020.06
2021-09-10 04:42:00,,0830.1,5.01,0.00,29.5,26.8,00.0,38.5,30.9,10.6,-002.3,0034.56,0021.66,0020.10
2021-09-10 04:43:00,,0830.0,5.00,0.00,29.4,26.3,00.0,38.5,30.8,10.7,-002.1,0033.71,0021.67,0020.10
2021-09-10 04:44:00,,0830.1,5.00,0.00,29.3,26.5,00.0,38.5,30.9,10.8,-001.9,0033.58,0021.66,0020.10
2021-09-10 04:45:00,,0830.1,4.99,0.00,29.3,26.9,00.0,38.4,30.9,10.8,-001.8,0033.50,0021.63,0020.07
2021-09-10 04:46:00,,0830.1,5.01,0.00,29.3,27.3,00.0,38.4,31.0,10.8,-002.0,0033.86,0021.65,0020.10
2021-09-10 04:47:00,,0830.1,4.99,0.00,29.3,27.6,00.0,38.4,31.0,10.8,-001.8,0034.19,0021.64,0020.10
2021-09-10 04:48:00,,0830.1,5.00,0.00,29.4,27.9,00.0,38.4,31.1,10.8,-001.2,0034.64,0021.58,0020.10
2021-09-10 04:49:00,,0830.1,4.99,0.00,29.4,28.1,00.0,38.4,31.1,10.7,-000.5,0034.99,0021.57,0020.10
2021-09-10 04:50:00,,0830.1,5.01,0.00,29.4,28.3,00.0,38.4,31.2,10.7,-000.5,0034.73,0021.58,0020.06
2021-09-10 04:51:00,,0830.1,4.99,0.00,29.5,28.4,00.0,38.5,31.2,10.7,-000.8,0035.73,0021.64,0020.08
2021-09-10 04:52:00,,0830.1,5.01,0.00,29.5,28.5,00.0,38.5,31.3,10.6,-001.0,0036.87,0021.67,0020.09
2021-09-10 04:53:00,,0830.1,5.00,0.00,29.5,28.6,00.0,38.5,31.4,10.6,-000.9,0037.19,0021.59,0020.06
2021-09-10 04:54:00,,0830.1,5.00,0.00,29.6,28.7,00.0,38.5,31.4,10.6,-001.0,0037.79,0021.60,0020.05
2021-09-10 04:55:00,,0830.1,5.00,0.00,29.6,28.4,00.0,38.5,31.3,10.5,-000.9,0037.60,0021.55,0020.00
2021-09-10 04:56:00,,0830.1,5.00,0.00,29.5,26.7,00.0,38.5,30.9,10.5,-000.8,0037.82,0021.51,0019.96
2021-09-10 04:57:00,,0830.2,5.00,0.00,29.4,26.3,00.0,38.5,30.8,10.6,-000.6,0037.41,0021.49,0019.94
2021-09-10 04:58:00,,0830.1,5.01,0.00,29.4,26.6,00.0,38.5,30.9,10.6,-000.8,0037.02,0021.42,0019.89
2021-09-10 04:59:00,,0830.1,5.00,0.00,29.3,27.0,00.0,38.5,30.9,10.7,-001.3,0036.27,0021.41,0019.87
